Flight Track Log - Related Links

Times and Time Zones

All times are in EDT time to prevent confusion due to time zone crossing. See the KAL249 flight status page for this flight to view local times or setup timezone preferences in your user account.

Time Position Orientation Groundspeed Altitude Reporting Facility
EDT Latitude Longitude Course Direction KTS MPH feet Rate Location/Type
Thu 01:20:25 PM 37.4968 126.3569 273° West 203 234 3,600  Level FlightAware ADS-B
Thu 01:20:44 PM 37.4977 126.3351 273° West 221 254 4,000 1,171 Climbing FlightAware ADS-B
Thu 01:21:06 PM 37.4986 126.3063 272° West 239 275 4,400 1,000 Climbing FlightAware ADS-B
Thu 01:21:26 PM 37.4948 126.2767 244° Southwest 267 307 4,700 1,463 Climbing FlightAware ADS-B
Thu 01:21:47 PM 37.4750 126.2540 204° Southwest 278 320 5,400 2,286 Climbing FlightAware ADS-B
Thu 01:22:08 PM 37.4512 126.2495 172° South 280 322 6,300 2,700 Climbing FlightAware ADS-B
Thu 01:22:27 PM 37.4259 126.2576 166° South 285 328 7,200 2,850 Climbing FlightAware ADS-B
Thu 01:22:48 PM 37.3996 126.2682 159° South 287 330 8,200 2,550 Climbing FlightAware ADS-B
Thu 01:23:07 PM 37.3764 126.2792 159° South 299 344 8,900 2,400 Climbing FlightAware ADS-B
Thu 01:23:28 PM 37.3478 126.2936 157° South 302 348 9,800 2,262 Climbing FlightAware ADS-B
Thu 01:24:08 PM 37.2952 126.3213 157° South 323 372 11,200 1,800 Climbing FlightAware ADS-B
Thu 01:24:48 PM 37.2361 126.3525 157° South 365 420 12,200 1,650 Climbing FlightAware ADS-B
Thu 01:25:28 PM 37.1717 126.3865 157° South 395 455 13,400 2,203 Climbing FlightAware ADS-B
Thu 01:26:07 PM 37.1039 126.4220 157° South 414 476 15,100 2,850 Climbing FlightAware ADS-B
Thu 01:26:48 PM 37.0338 126.4589 157° South 421 484 17,200 2,815 Climbing FlightAware ADS-B
Thu 01:27:28 PM 36.9579 126.4987 157° South 435 501 18,900 2,625 Climbing FlightAware ADS-B
Thu 01:28:08 PM 36.8851 126.5377 157° South 443 510 20,700 2,220 Climbing FlightAware ADS-B
Thu 01:29:08 PM 36.7666 126.5994 158° South 468 539 22,600 1,980 Climbing FlightAware ADS-B
Thu 01:29:48 PM 36.6834 126.6337 164° South 475 547 24,000 2,051 Climbing FlightAware ADS-B
Thu 01:30:27 PM 36.5990 126.6621 165° South 484 557 25,300 2,175 Climbing FlightAware ADS-B
Thu 01:31:08 PM 36.5119 126.6905 165° South 486 559 26,900 2,074 Climbing FlightAware ADS-B
Thu 01:31:48 PM 36.4236 126.7196 165° South 498 573 28,100 1,800 Climbing FlightAware ADS-B
Thu 01:32:28 PM 36.3332 126.7502 165° South 506 582 29,300 1,800 Climbing FlightAware ADS-B
Thu 01:33:08 PM 36.2421 126.7817 165° South 513 590 30,500 1,575 Climbing FlightAware ADS-B
Thu 01:33:48 PM 36.1510 126.8061 176° South 517 595 31,400 2,100 Climbing FlightAware ADS-B
Thu 01:34:28 PM 36.0563 126.8022 184° South 496 571 33,300 2,354 Climbing FlightAware ADS-B
Thu 01:35:07 PM 35.9638 126.7925 185° South 496 571 34,500 1,671 Climbing FlightAware ADS-B
Thu 01:35:47 PM 35.8821 126.7830 185° South 497 572 35,500 1,125 Climbing FlightAware ADS-B
Thu 01:36:27 PM 35.7876 126.7727 185° South 502 578 36,000 375 Climbing FlightAware ADS-B
Thu 01:37:07 PM 35.6883 126.7614 185° South 500 575 36,000  Level FlightAware ADS-B
Thu 01:37:47 PM 35.5975 126.7521 185° South 498 573 36,000  Level FlightAware ADS-B
Thu 01:38:26 PM 35.5072 126.7429 185° South 496 571 36,000  Level FlightAware ADS-B
Thu 01:39:06 PM 35.4166 126.7333 185° South 494 568 36,000  Level FlightAware ADS-B
Thu 01:39:48 PM 35.3221 126.7229 185° South 493 567 36,000  Level FlightAware ADS-B
Thu 01:40:28 PM 35.2312 126.7130 185° South 493 567 36,000  Level FlightAware ADS-B
Thu 01:41:08 PM 35.1400 126.7032 185° South 496 571 36,000  Level FlightAware ADS-B
Thu 01:41:47 PM 35.0487 126.6935 185° South 497 572 36,000  Level FlightAware ADS-B
Thu 01:42:25 PM 34.9647 126.6847 185° South 498 573 36,000  Level FlightAware ADS-B
Thu 01:43:08 PM 34.8644 126.6741 185° South 498 573 36,000  Level FlightAware ADS-B
Thu 01:43:48 PM 34.7735 126.6645 185° South 496 571 36,000  Level FlightAware ADS-B
Thu 01:44:28 PM 34.6865 126.6553 185° South 495 570 36,000  Level FlightAware ADS-B
Thu 01:45:06 PM 34.5941 126.6456 185° South 497 572 36,000  Level FlightAware ADS-B
Thu 01:45:47 PM 34.5005 126.6359 185° South 499 574 36,000  Level FlightAware ADS-B
Thu 01:46:28 PM 34.4068 126.6261 185° South 500 575 36,000  Level FlightAware ADS-B
Thu 01:47:06 PM 34.3354 126.6186 189° South 496 571 36,000 -620 Level FlightAware ADS-B
Thu 02:34:43 PM 31.3713 122.0010 268° West 248 285 6,100 -634 Descending FlightAware ADS-B (ZSSL)
Thu 02:35:11 PM 31.3697 121.9626 267° West 242 278 5,500 -1,091 Descending FlightAware ADS-B (ZSSL)
Thu 02:35:27 PM 31.3688 121.9422 267° West 230 265 5,300 -968 Descending FlightAware ADS-B (ZSSL)
Thu 02:35:42 PM 31.3679 121.9241 267° West 222 255 5,000 -1,161 Descending FlightAware ADS-B (ZSSL)
Thu 02:35:58 PM 31.3669 121.9049 267° West 217 250 4,700 -1,000 Descending FlightAware ADS-B (ZSSL)
Thu 02:36:12 PM 31.3661 121.8891 267° West 209 241 4,500 -800 Descending FlightAware ADS-B (ZSSL)
Thu 02:36:28 PM 31.3653 121.8717 267° West 199 229 4,300 -1,000 Descending FlightAware ADS-B (ZSSL)
Thu 02:36:42 PM 31.3645 121.8563 267° West 195 224 4,000 -1,154 Descending FlightAware ADS-B (ZSSL)
Thu 02:36:54 PM 31.3638 121.8438 266° West 196 226 3,800 -828 Descending FlightAware ADS-B (ZSSL)
Thu 02:37:11 PM 31.3626 121.8251 266° West 200 230 3,600 -706 Descending FlightAware ADS-B (ZSSL)
Thu 02:37:28 PM 31.3615 121.8069 267° West 203 234 3,400 -800 Descending FlightAware ADS-B (ZSSL)
Thu 02:37:41 PM 31.3607 121.7926 267° West 202 232 3,200 -581 Descending FlightAware ADS-B (ZSSL)
Thu 02:37:59 PM 31.3597 121.7734 267° West 202 232 3,100 -387 Descending FlightAware ADS-B (ZSSL)
Thu 02:38:12 PM 31.3590 121.7605 266° West 198 228 3,000 -545 Descending FlightAware ADS-B (ZSSL)
Thu 02:38:21 PM 31.3573 121.7502 252° West 192 221 2,900 -750 Descending FlightAware ADS-B (ZSSL)
Thu 02:38:28 PM 31.3540 121.7435 240° Southwest 191 220 2,800 -500 Descending FlightAware ADS-B (ZSSL)
Thu 02:38:33 PM 31.3521 121.7411 222° Southwest 189 217 2,800 -600 Level FlightAware ADS-B (ZSSL)
Thu 02:38:38 PM 31.3487 121.7383 211° Southwest 186 214 2,700 -667 Descending FlightAware ADS-B (ZSSL)
Thu 02:38:42 PM 31.3439 121.7358 200° South 185 213 2,700 -261 Level FlightAware ADS-B (ZSSL)
Thu 02:39:01 PM 31.3282 121.7308 195° South 184 212 2,600 -444 Descending FlightAware ADS-B (ZSSL)
Thu 02:39:09 PM 31.3222 121.7293 189° South 183 211 2,500 -600 Descending FlightAware ADS-B (ZSSL)
Thu 02:39:11 PM 31.3198 121.7290 184° South 183 211 2,500 -667 Level FlightAware ADS-B (ZSSL)
Thu 02:39:18 PM 31.3145 121.7292 175° South 181 208 2,400 -545 Descending FlightAware ADS-B (ZSSL)
Thu 02:39:33 PM 31.3024 121.7327 162° South 179 206 2,300 -387 Descending FlightAware ADS-B (ZSSL)
Thu 02:39:49 PM 31.2916 121.7369 162° South 178 205 2,200 -167 Descending FlightAware ADS-B (ZSSL)
Thu 02:40:09 PM 31.2741 121.7433 161° South 177 204 2,200 -305 Level FlightAware ADS-B (ZSSL)
Thu 02:40:48 PM 31.2455 121.7541 162° South 155 178 1,900 -712 Descending FlightAware ADS-B (ZSSL)
Thu 02:42:07 PM 31.1913 121.7746 161° South 156 180 800 -835 Descending FlightAware ADS-B (ZSSL)
Thu 02:44:00 PM 31.1428 121.7924 163° South  Level Estimated
Thu 02:45:00 PM 31.1428 121.7924 North  Level Estimated
Thu 02:46:00 PM 31.1428 121.7924 North  Level Estimated
Thu 02:47:00 PM 31.1428 121.7924 North  Level Estimated
Thu 02:48:00 PM 31.1428 121.7924 North  Level Estimated
Thu 02:49:00 PM 31.1428 121.7924 North  Level Estimated
Thu 02:50:00 PM 31.1428 121.7924 North  Level Estimated
Thu 02:51:00 PM 31.1428 121.7924 North  Level Estimated
Thu 02:52:00 PM 31.1428 121.7924 North  Level Estimated
Thu 02:53:00 PM 31.1428 121.7924 North  Level Estimated
Thu 02:54:00 PM 31.1428 121.7924 North  Level Estimated
Thu 02:55:00 PM 31.1428 121.7924 North  Level Estimated
Thu 02:56:00 PM 31.1428 121.7924 North  Level Estimated
Thu 02:57:00 PM 31.1428 121.7924 North  Level Estimated
Thu 02:58:00 PM 31.1428 121.7924 North  Level Estimated
Thu 02:59:00 PM 31.1428 121.7924 North  Level Estimated
Thu 03:00:00 PM 31.1428 121.7924 North  Level Estimated
Thu 03:01:00 PM 31.1428 121.7924 North  Level Estimated
Thu 03:02:00 PM 31.1428 121.7924 North  Level Estimated
Thu 03:03:00 PM 31.1428 121.7924 North  Level Estimated
Thu 03:04:00 PM 31.1428 121.7924 North  Level Estimated
Thu 03:05:00 PM 31.1428 121.7924 North  Level Estimated
Thu 03:06:00 PM 31.1428 121.7924 North  Level Estimated
Thu 03:07:00 PM 31.1428 121.7924 North  Level Estimated
Thu 03:08:00 PM 31.1428 121.7924 North  Level Estimated
Thu 03:09:00 PM 31.1428 121.7924 North  Level Estimated
Thu 03:10:00 PM 31.1428 121.7924 North  Level Estimated
Thu 03:11:00 PM 31.1428 121.7924 North  Level Estimated
Thu 03:12:00 PM 31.1428 121.7924 North  Level Estimated
Thu 03:13:00 PM 31.1428 121.7924 North  Level Estimated
Thu 03:14:00 PM 31.1428 121.7924 North  Level Estimated
Thu 03:15:00 PM 31.1428 121.7924 North  Level Estimated
Thu 03:16:00 PM 31.1428 121.7924 North  Level Estimated

Login

Don't have an account? Register now (free) for customized features, flight alerts, and more!